HELLAS-SAT 4 & SGS-1

Last updated on Tue Oct 28 2025 00:02:50 GMT+0000 (Coordinated Universal Time)

1 44034U 19007A 25300.19545022 .00000164 00000+0 00000+0 0 9999 2 44034 0.0655 125.5510 0005678 42.2431 337.4037 1.00270623 25032
UTC large
Height (km)
Speed (km/s)
/
Latitude / Longitude
Inclination (degrees)
Orbital Period (minutes)
Azimuth
Elevation
Range (km)
Doppler Factor

Next 0 passes for location: London (51.5072 / 0.1276)

Sorry there are no passes over London.